Tracking 18951 objects as of 21-Jan-2018
HD Live streaming from Space Station
objects crossing your sky now

COSMOS 921

Track COSMOS 921 now!
10-day predictions
COSMOS 921 is classified as:


NORAD ID: 10095
Int'l Code: 1977-055A
Perigee: 572.4 km
Apogee: 626.6 km
Inclination: 75.8 °
Period: 96.5 minutes
Semi major axis: 6970 km
RCS: 2.5859 m2 (large)
Launch date: June 24, 1977
Source: Commonwealth of Independent States (former USSR) (CIS)
Launch site: PLESETSK MISSILE AND SPACE COMPLEX (PKMTR)
aabbcc
Your satellite tracking list
Your tracking list is empty




NASA's NSSDC Master Catalog

Two Line Element Set (TLE):
1 10095U 77055A   18020.88260843 +.00000082 +00000-0 +10196-4 0  9990
2 10095 075.8343 278.9566 0038861 295.4021 064.3151 14.91776583196332
Source of the keplerian elements: AFSPC